| time (UTC) | temp F | wind direction | speed MPH | gust MPH | rain 1hr in | rain 24hr in | rain mn in | humidity % | barometer mb |
| 20260906202103 | 88 | 175 | 7.0 | 14.0 | 0.00 | 0.78 | 0.78 | 54 | 1015.0 |
| 20260906201603 | 88 | 174 | 8.0 | 14.0 | 0.00 | 0.78 | 0.78 | 53 | 1015.1 |
| 20260906201103 | 88 | 174 | 8.0 | 15.0 | 0.00 | 0.78 | 0.78 | 53 | 1015.0 |
| 20260906200603 | 88 | 185 | 8.0 | 15.0 | 0.00 | 0.78 | 0.78 | 53 | 1015.1 |
| 20260906200104 | 88 | 187 | 8.0 | 15.0 | 0.00 | 0.78 | 0.78 | 53 | 1015.2 |
| 20260906195603 | 87 | 174 | 9.0 | 15.0 | 0.00 | 0.78 | 0.78 | 54 | 1015.4 |
| 20260906195103 | 87 | 168 | 9.0 | 15.0 | 0.00 | 0.78 | 0.78 | 54 | 1015.4 |
| 20260906194603 | 88 | 173 | 8.0 | 15.0 | 0.00 | 0.78 | 0.78 | 53 | 1015.4 |
| 20260906194103 | 87 | 177 | 7.0 | 16.0 | 0.00 | 0.78 | 0.78 | 54 | 1015.5 |
| 20260906192603 | 87 | 182 | 7.0 | 13.0 | 0.00 | 0.78 | 0.78 | 54 | 1015.5 |
| 20260906192103 | 87 | 193 | 7.0 | 13.0 | 0.00 | 0.78 | 0.78 | 54 | 1015.6 |
| 20260906191603 | 87 | 188 | 7.0 | 13.0 | 0.00 | 0.78 | 0.78 | 53 | 1015.6 |
| 20260906191103 | 87 | 167 | 8.0 | 14.0 | 0.00 | 0.78 | 0.78 | 54 | 1015.6 |
| 20260906190602 | 86 | 165 | 8.0 | 14.0 | 0.00 | 0.78 | 0.78 | 55 | 1015.7 |
| 20260906185102 | 86 | 161 | 8.0 | 15.0 | 0.00 | 0.78 | 0.78 | 56 | 1015.9 |
| 20260906184602 | 85 | 168 | 9.0 | 15.0 | 0.00 | 0.78 | 0.78 | 56 | 1016.0 |
| 20260906184102 | 85 | 176 | 8.0 | 15.0 | 0.00 | 0.78 | 0.78 | 56 | 1016.0 |
| 20260906183602 | 85 | 191 | 8.0 | 13.0 | 0.00 | 0.78 | 0.78 | 55 | 1016.0 |
| 20260906183102 | 85 | 200 | 8.0 | 15.0 | 0.00 | 0.78 | 0.78 | 56 | 1016.1 |
| 20260906182601 | 85 | 196 | 9.0 | 15.0 | 0.00 | 0.78 | 0.78 | 56 | 1016.1 |
| 20260906182101 | 85 | 190 | 9.0 | 20.0 | 0.00 | 0.78 | 0.78 | 57 | 1016.2 |
| 20260906181601 | 84 | 187 | 10.0 | 20.0 | 0.00 | 0.78 | 0.78 | 59 | 1016.3 |
| 20260906181101 | 84 | 184 | 10.0 | 18.0 | 0.00 | 0.78 | 0.78 | 58 | 1016.4 |
| 20260906180602 | 84 | 190 | 9.0 | 16.0 | 0.00 | 0.78 | 0.78 | 60 | 1016.6 |
| 20260906175601 | 84 | 188 | 8.0 | 15.0 | 0.00 | 0.78 | 0.78 | 61 | 1016.7 |
| 20260906175101 | 83 | 183 | 8.0 | 15.0 | 0.00 | 0.78 | 0.78 | 61 | 1016.7 |
| 20260906174601 | 83 | 187 | 8.0 | 15.0 | 0.00 | 0.78 | 0.78 | 63 | 1016.8 |
| 20260906173600 | 82 | 177 | 9.0 | 16.0 | 0.00 | 0.78 | 0.78 | 63 | 1016.8 |
| 20260906173101 | 82 | 174 | 10.0 | 18.0 | 0.00 | 0.78 | 0.78 | 64 | 1017.0 |
| 20260906172601 | 82 | 183 | 11.0 | 18.0 | 0.00 | 0.78 | 0.78 | 63 | 1017.0 |
| 20260906172101 | 82 | 199 | 12.0 | 21.0 | 0.00 | 0.78 | 0.78 | 62 | 1017.1 |
| 20260906171600 | 82 | 200 | 12.0 | 21.0 | 0.00 | 0.78 | 0.78 | 61 | 1017.1 |
| 20260906171100 | 82 | 200 | 10.0 | 20.0 | 0.00 | 0.78 | 0.78 | 61 | 1017.1 |
| 20260906170601 | 82 | 193 | 9.0 | 16.0 | 0.00 | 0.78 | 0.78 | 62 | 1017.1 |
| 20260906170100 | 81 | 186 | 9.0 | 20.0 | 0.00 | 0.78 | 0.78 | 66 | 1017.3 |
| 20260906165600 | 81 | 194 | 8.0 | 20.0 | 0.00 | 0.78 | 0.78 | 64 | 1017.3 |
| 20260906165100 | 80 | 170 | 10.0 | 20.0 | 0.00 | 0.78 | 0.78 | 65 | 1017.3 |
| 20260906164600 | 80 | 176 | 11.0 | 20.0 | 0.00 | 0.78 | 0.78 | 65 | 1017.2 |
| 20260906164100 | 80 | 189 | 11.0 | 17.0 | 0.00 | 0.78 | 0.78 | 65 | 1017.2 |
| 20260906163600 | 80 | 171 | 10.0 | 16.0 | 0.00 | 0.78 | 0.78 | 65 | 1017.2 |
| 20260906163100 | 79 | 173 | 8.0 | 16.0 | 0.00 | 0.78 | 0.78 | 66 | 1017.2 |
| 20260906162559 | 79 | 172 | 8.0 | 18.0 | 0.00 | 0.78 | 0.78 | 68 | 1017.3 |
| 20260906162100 | 78 | 161 | 8.0 | 18.0 | 0.00 | 0.78 | 0.78 | 68 | 1017.3 |
| 20260906160100 | 76 | 175 | 9.0 | 16.0 | 0.00 | 0.78 | 0.78 | 73 | 1017.3 |
| 20260906155559 | 76 | 160 | 9.0 | 16.0 | 0.00 | 0.78 | 0.78 | 74 | 1017.2 |
| 20260906155059 | 76 | 155 | 8.0 | 15.0 | 0.00 | 0.78 | 0.78 | 75 | 1017.3 |
| 20260906154559 | 76 | 163 | 8.0 | 15.0 | 0.00 | 0.78 | 0.78 | 76 | 1017.3 |
| 20260906154059 | 75 | 181 | 7.0 | 15.0 | 0.00 | 0.78 | 0.78 | 76 | 1017.1 |
| 20260906152559 | 74 | 160 | 9.0 | 16.0 | 0.00 | 0.78 | 0.78 | 79 | 1017.0 |
| 20260906152058 | 74 | 167 | 9.0 | 15.0 | 0.00 | 0.78 | 0.78 | 79 | 1016.9 |
| 20260906151559 | 73 | 168 | 8.0 | 17.0 | 0.00 | 0.78 | 0.78 | 80 | 1016.9 |
| 20260906151058 | 73 | 166 | 8.0 | 19.0 | 0.00 | 0.78 | 0.78 | 80 | 1016.9 |
| 20260906150558 | 73 | 163 | 8.0 | 19.0 | 0.00 | 0.78 | 0.78 | 81 | 1017.0 |
| 20260906150058 | 72 | 158 | 7.0 | 13.0 | 0.00 | 0.78 | 0.78 | 82 | 1017.1 |
| 20260906145559 | 72 | 157 | 6.0 | 13.0 | 0.00 | 0.78 | 0.78 | 84 | 1017.0 |
| 20260906145058 | 72 | 151 | 6.0 | 12.0 | 0.00 | 0.78 | 0.78 | 85 | 1017.0 |
| 20260906143558 | 70 | 126 | 5.0 | 11.0 | 0.00 | 0.78 | 0.78 | 87 | 1016.9 |
| 20260906143058 | 70 | 116 | 4.0 | 10.0 | 0.00 | 0.78 | 0.78 | 88 | 1016.9 |
| 20260906142600 | 69 | 110 | 3.0 | 10.0 | 0.00 | 0.78 | 0.78 | 89 | 1016.8 |
| 20260906142058 | 69 | 105 | 2.0 | 6.0 | 0.00 | 0.78 | 0.78 | 89 | 1016.8 |
| 20260906141557 | 69 | 107 | 1.0 | 5.0 | 0.00 | 0.78 | 0.78 | 91 | 1016.8 |
| 20260906141058 | 68 | 107 | 0.0 | 4.0 | 0.00 | 0.78 | 0.78 | 91 | 1016.9 |
| 20260906140559 | 68 | 80 | 0.0 | 2.0 | 0.00 | 0.78 | 0.78 | 92 | 1016.8 |
| 20260906140057 | 68 | 71 | 0.0 | 2.0 | 0.00 | 0.78 | 0.78 | 92 | 1016.8 |
| 20260906135558 | 67 | 12 | 0.0 | 2.0 | 0.00 | 0.78 | 0.78 | 92 | 1016.9 |
| 20260906135057 | 67 | 1 | 0.0 | 2.0 | 0.00 | 0.78 | 0.78 | 92 | 1016.7 |
| 20260906134558 | 67 | 345 | 0.0 | 1.0 | 0.00 | 0.78 | 0.78 | 92 | 1016.8 |
| 20260906133558 | 67 | 337 | 1.0 | 3.0 | 0.00 | 0.78 | 0.78 | 92 | 1016.9 |
| 20260906133057 | 67 | 333 | 0.0 | 2.0 | 0.01 | 0.78 | 0.78 | 91 | 1017.0 |
| 20260906132557 | 67 | 333 | 0.0 | 1.0 | 0.01 | 0.78 | 0.78 | 91 | 1016.9 |
| 20260906132058 | 67 | 333 | 1.0 | 3.0 | 0.01 | 0.78 | 0.78 | 91 | 1016.6 |
| 20260906131556 | 67 | 336 | 1.0 | 3.0 | 0.01 | 0.78 | 0.78 | 91 | 1016.7 |
| 20260906131057 | 67 | 359 | 1.0 | 5.0 | 0.01 | 0.78 | 0.78 | 91 | 1016.3 |
| 20260906130557 | 67 | 357 | 2.0 | 6.0 | 0.01 | 0.78 | 0.78 | 91 | 1016.0 |
| 20260906130057 | 67 | 349 | 4.0 | 9.0 | 0.01 | 0.78 | 0.78 | 91 | 1016.0 |
| 20260906125557 | 67 | 341 | 5.0 | 9.0 | 0.01 | 0.78 | 0.78 | 90 | 1016.1 |
| 20260906125056 | 68 | 333 | 4.0 | 10.0 | 0.01 | 0.78 | 0.78 | 90 | 1015.8 |
| 20260906124556 | 68 | 95 | 7.0 | 21.0 | 0.01 | 0.78 | 0.78 | 90 | 1015.4 |
| 20260906123556 | 68 | 144 | 14.0 | 22.0 | 0.01 | 0.78 | 0.78 | 90 | 1013.8 |
| 20260906123056 | 68 | 153 | 13.0 | 22.0 | 0.00 | 0.77 | 0.77 | 91 | 1015.3 |
| 20260906122556 | 67 | 158 | 7.0 | 16.0 | 0.00 | 0.77 | 0.77 | 93 | 1015.6 |
| 20260906122056 | 67 | 184 | 2.0 | 9.0 | 0.00 | 0.77 | 0.77 | 94 | 1016.1 |
| 20260906121556 | 66 | 202 | 2.0 | 5.0 | 0.00 | 0.77 | 0.77 | 95 | 1016.5 |
| 20260906121056 | 66 | 218 | 2.0 | 6.0 | 0.00 | 0.77 | 0.77 | 96 | 1016.4 |
| 20260906120556 | 66 | 199 | 2.0 | 6.0 | 0.00 | 0.77 | 0.77 | 96 | 1016.4 |
| 20260906120056 | 66 | 182 | 3.0 | 6.0 | 0.00 | 0.77 | 0.77 | 96 | 1016.2 |
| 20260906115555 | 66 | 175 | 3.0 | 7.0 | 0.00 | 0.77 | 0.77 | 96 | 1016.1 |
| 20260906115056 | 66 | 150 | 4.0 | 8.0 | 0.00 | 0.77 | 0.77 | 96 | 1015.9 |
| 20260906114555 | 65 | 137 | 4.0 | 9.0 | 0.00 | 0.77 | 0.77 | 96 | 1015.5 |
| 20260906114056 | 65 | 121 | 5.0 | 12.0 | 0.00 | 0.77 | 0.77 | 96 | 1015.5 |
| 20260906113556 | 65 | 111 | 6.0 | 14.0 | 0.00 | 0.77 | 0.77 | 96 | 1015.6 |
| 20260906112556 | 65 | 104 | 8.0 | 19.0 | 0.00 | 0.77 | 0.77 | 96 | 1015.8 |
| 20260906111556 | 65 | 105 | 5.0 | 17.0 | 0.00 | 0.77 | 0.77 | 96 | 1015.8 |
| 20260906111055 | 65 | 103 | 6.0 | 11.0 | 0.00 | 0.77 | 0.77 | 96 | 1015.6 |
| 20260906110555 | 65 | 101 | 5.0 | 11.0 | 0.00 | 0.77 | 0.77 | 96 | 1015.3 |
| 20260906110055 | 65 | 104 | 2.0 | 9.0 | 0.00 | 0.77 | 0.77 | 96 | 1015.4 |
| 20260906105555 | 65 | 75 | 2.0 | 5.0 | 0.00 | 0.77 | 0.77 | 96 | 1015.5 |
| 20260906105054 | 65 | 80 | 4.0 | 17.0 | 0.00 | 0.77 | 0.77 | 96 | 1015.4 |
| 20260906104555 | 65 | 96 | 8.0 | 18.0 | 0.01 | 0.77 | 0.77 | 96 | 1015.2 |
| 20260906104054 | 65 | 99 | 10.0 | 18.0 | 0.01 | 0.77 | 0.77 | 96 | 1014.0 |
| 20260906103555 | 65 | 101 | 9.0 | 16.0 | 0.01 | 0.77 | 0.77 | 96 | 1014.6 |
| 20260906102554 | 65 | 97 | 11.0 | 23.0 | 0.02 | 0.77 | 0.77 | 96 | 1014.4 |
| 20260906101054 | 66 | 103 | 8.0 | 20.0 | 0.11 | 0.77 | 0.77 | 96 | 1015.2 |
| 20260906100555 | 66 | 102 | 4.0 | 13.0 | 0.23 | 0.77 | 0.77 | 96 | 1015.6 |
| 20260906100054 | 66 | 99 | 4.0 | 10.0 | 0.34 | 0.77 | 0.77 | 96 | 1015.6 |
| 20260906095554 | 66 | 94 | 3.0 | 10.0 | 0.36 | 0.77 | 0.77 | 96 | 1015.8 |
| 20260906095053 | 66 | 93 | 2.0 | 10.0 | 0.38 | 0.77 | 0.77 | 96 | 1016.0 |
| 20260906094553 | 66 | 88 | 1.0 | 5.0 | 0.39 | 0.76 | 0.76 | 96 | 1016.2 |
| 20260906094054 | 66 | 82 | 0.0 | 2.0 | 0.41 | 0.76 | 0.76 | 96 | 1017.0 |
| 20260906093554 | 66 | 85 | 1.0 | 3.0 | 0.45 | 0.76 | 0.76 | 96 | 1017.4 |
| 20260906093054 | 66 | 50 | 1.0 | 4.0 | 0.48 | 0.75 | 0.75 | 96 | 1017.6 |
| 20260906092554 | 66 | 37 | 2.0 | 4.0 | 0.49 | 0.75 | 0.75 | 96 | 1017.6 |
| 20260906092054 | 66 | 10 | 3.0 | 10.0 | 0.48 | 0.74 | 0.74 | 96 | 1018.2 |
| 20260906091554 | 65 | 349 | 5.0 | 10.0 | 0.46 | 0.72 | 0.72 | 95 | 1018.3 |
| 20260906091054 | 65 | 315 | 4.0 | 8.0 | 0.38 | 0.64 | 0.64 | 95 | 1019.1 |
| 20260906090553 | 65 | 291 | 4.0 | 11.0 | 0.24 | 0.50 | 0.50 | 94 | 1019.4 |
| 20260906090053 | 65 | 301 | 4.0 | 11.0 | 0.18 | 0.43 | 0.43 | 92 | 1019.1 |
| 20260906085553 | 65 | 314 | 5.0 | 11.0 | 0.17 | 0.40 | 0.40 | 92 | 1018.6 |
| 20260906085055 | 65 | 324 | 6.0 | 13.0 | 0.19 | 0.39 | 0.39 | 92 | 1018.2 |
| 20260906084553 | 65 | 322 | 6.0 | 13.0 | 0.21 | 0.37 | 0.37 | 92 | 1017.4 |
| 20260906084053 | 65 | 320 | 5.0 | 12.0 | 0.20 | 0.35 | 0.35 | 92 | 1017.5 |
| 20260906083552 | 65 | 326 | 5.0 | 12.0 | 0.18 | 0.31 | 0.31 | 92 | 1017.4 |
| 20260906082553 | 64 | 334 | 6.0 | 16.0 | 0.24 | 0.26 | 0.26 | 95 | 1017.4 |
| 20260906082054 | 64 | 334 | 6.0 | 12.0 | 0.25 | 0.26 | 0.26 | 95 | 1017.4 |
| 20260906080552 | 64 | 315 | 7.0 | 14.0 | 0.26 | 0.26 | 0.26 | 94 | 1017.9 |
| 20260906080053 | 64 | 317 | 8.0 | 20.0 | 0.25 | 0.25 | 0.25 | 93 | 1017.9 |
| 20260906075552 | 65 | 310 | 8.0 | 20.0 | 0.23 | 0.23 | 0.23 | 92 | 1018.3 |
| 20260906075053 | 66 | 301 | 8.0 | 19.0 | 0.20 | 0.20 | 0.20 | 90 | 1018.5 |
| 20260906074553 | 66 | 304 | 9.0 | 19.0 | 0.16 | 0.16 | 0.16 | 91 | 1018.6 |
| 20260906074053 | 66 | 310 | 9.0 | 18.0 | 0.15 | 0.15 | 0.15 | 92 | 1018.4 |
| 20260906073552 | 66 | 315 | 10.0 | 21.0 | 0.13 | 0.13 | 0.13 | 92 | 1018.3 |
| 20260906073052 | 66 | 309 | 11.0 | 22.0 | 0.07 | 0.07 | 0.07 | 90 | 1017.9 |
| 20260906072552 | 66 | 302 | 11.0 | 24.0 | 0.02 | 0.02 | 0.02 | 89 | 1018.3 |
| 20260906072051 | 67 | 300 | 11.0 | 26.0 | 0.01 | 0.01 | 0.01 | 88 | 1018.0 |
| 20260906071552 | 68 | 296 | 12.0 | 28.0 | 0.01 | 0.01 | 0.01 | 87 | 1017.9 |
| 20260906070052 | 72 | 278 | 11.0 | 27.0 | 0.00 | 0.00 | 0.00 | 77 | 1017.9 |
| 20260906065552 | 75 | 274 | 6.0 | 25.0 | 0.00 | 0.00 | 0.00 | 76 | 1017.8 |
| 20260906064551 | 76 | 340 | 3.0 | 6.0 | 0.00 | 0.00 | 0.00 | 86 | 1016.0 |
| 20260906064052 | 76 | 336 | 2.0 | 6.0 | 0.00 | 0.00 | 0.00 | 86 | 1015.9 |
| 20260906063551 | 76 | 325 | 1.0 | 4.0 | 0.00 | 0.00 | 0.00 | 86 | 1015.9 |
| 20260906063051 | 76 | 330 | 1.0 | 4.0 | 0.00 | 0.00 | 0.00 | 86 | 1015.7 |
| 20260906062051 | 76 | 110 | 1.0 | 2.0 | 0.00 | 0.00 | 0.00 | 86 | 1015.4 |
| 20260906061551 | 76 | 108 | 1.0 | 5.0 | 0.00 | 0.00 | 0.00 | 86 | 1015.4 |
| 20260906061051 | 76 | 106 | 1.0 | 5.0 | 0.00 | 0.00 | 0.00 | 86 | 1015.5 |
| 20260906060550 | 76 | 96 | 0.0 | 4.0 | 0.00 | 0.00 | 0.00 | 86 | 1015.3 |
| 20260906060051 | 77 | 51 | 0.0 | 1.0 | 0.00 | 0.00 | 0.00 | 86 | 1015.2 |
| 20260906055550 | 77 | 51 | 0.0 | 1.0 | 0.00 | 0.00 | 0.00 | 85 | 1015.2 |
| 20260906055051 | 77 | 80 | 0.0 | 2.0 | 0.00 | 0.00 | 0.00 | 85 | 1015.2 |
| 20260906054550 | 77 | 85 | 0.0 | 2.0 | 0.00 | 0.00 | 0.00 | 84 | 1015.2 |
| 20260906053551 | 77 | 108 | 0.0 | 1.0 | 0.00 | 0.00 | 0.00 | 84 | 1015.3 |
| 20260906053050 | 77 | 105 | 1.0 | 3.0 | 0.00 | 0.00 | 0.00 | 84 | 1015.3 |
| 20260906052551 | 77 | 121 | 1.0 | 3.0 | 0.00 | 0.00 | 0.00 | 84 | 1015.2 |
| 20260906052050 | 77 | 146 | 3.0 | 6.0 | 0.00 | 0.00 | 0.00 | 84 | 1015.1 |
| 20260906051551 | 77 | 152 | 3.0 | 6.0 | 0.00 | 0.00 | 0.00 | 84 | 1015.1 |
| 20260906051052 | 77 | 148 | 2.0 | 4.0 | 0.00 | 0.00 | 0.00 | 83 | 1015.1 |
| 20260906050550 | 78 | 117 | 3.0 | 5.0 | 0.00 | 0.00 | 0.00 | 83 | 1014.9 |
| 20260906050051 | 78 | 103 | 3.0 | 6.0 | 0.00 | 0.00 | 0.00 | 83 | 1014.7 |
| 20260906045550 | 78 | 101 | 4.0 | 9.0 | 0.00 | 0.00 | 0.00 | 83 | 1014.5 |
| 20260906045050 | 78 | 105 | 4.0 | 9.0 | 0.00 | 0.00 | 0.00 | 83 | 1014.6 |
| 20260906044550 | 78 | 123 | 2.0 | 5.0 | 0.00 | 0.00 | 0.00 | 83 | 1014.6 |
| 20260906044049 | 78 | 134 | 2.0 | 4.0 | 0.00 | 0.00 | 0.00 | 83 | 1014.7 |
| 20260906043549 | 78 | 120 | 3.0 | 6.0 | 0.00 | 0.00 | 0.00 | 82 | 1014.9 |
| 20260906043049 | 78 | 109 | 2.0 | 6.0 | 0.00 | 0.00 | 0.00 | 81 | 1015.2 |
| 20260906042550 | 78 | 105 | 1.0 | 6.0 | 0.00 | 0.00 | 0.00 | 82 | 1015.5 |
| 20260906042049 | 78 | 101 | 0.0 | 4.0 | 0.00 | 0.00 | 0.00 | 82 | 1015.4 |
| 20260906041549 | 78 | 90 | 0.0 | 4.0 | 0.00 | 0.00 | 0.00 | 82 | 1015.4 |
| 20260906040049 | 79 | 104 | 2.0 | 7.0 | 0.00 | 0.00 | 0.00 | 80 | 1015.4 |
| 20260906035549 | 79 | 100 | 1.0 | 7.0 | 0.00 | 0.00 | 0.00 | 80 | 1015.5 |
| 20260906035048 | 79 | 48 | 1.0 | 3.0 | 0.00 | 0.00 | 0.00 | 79 | 1015.5 |
| 20260906034549 | 80 | 41 | 1.0 | 3.0 | 0.00 | 0.00 | 0.00 | 79 | 1015.4 |
| 20260906034048 | 80 | 53 | 1.0 | 2.0 | 0.00 | 0.00 | 0.00 | 78 | 1015.6 |
| 20260906033548 | 80 | 80 | 1.0 | 3.0 | 0.00 | 0.00 | 0.00 | 78 | 1015.4 |
| 20260906033048 | 80 | 112 | 1.0 | 3.0 | 0.00 | 0.00 | 0.00 | 77 | 1015.3 |
| 20260906032548 | 80 | 102 | 2.0 | 6.0 | 0.00 | 0.00 | 0.00 | 77 | 1015.2 |
| 20260906032049 | 80 | 102 | 4.0 | 7.0 | 0.00 | 0.00 | 0.00 | 78 | 1015.1 |
| 20260906031548 | 80 | 103 | 4.0 | 7.0 | 0.00 | 0.00 | 0.00 | 78 | 1015.0 |
| 20260906031048 | 80 | 104 | 5.0 | 9.0 | 0.00 | 0.00 | 0.00 | 78 | 1014.9 |
| 20260906030548 | 80 | 104 | 5.0 | 9.0 | 0.00 | 0.00 | 0.00 | 78 | 1014.9 |
| 20260906030048 | 80 | 104 | 5.0 | 8.0 | 0.00 | 0.00 | 0.00 | 78 | 1014.8 |
| 20260906025548 | 80 | 104 | 5.0 | 8.0 | 0.00 | 0.00 | 0.00 | 77 | 1014.7 |
| 20260906024548 | 80 | 100 | 2.0 | 7.0 | 0.00 | 0.00 | 0.00 | 77 | 1014.6 |
| 20260906024047 | 80 | 100 | 3.0 | 8.0 | 0.00 | 0.00 | 0.00 | 77 | 1014.5 |
| 20260906023548 | 80 | 102 | 4.0 | 8.0 | 0.00 | 0.00 | 0.00 | 77 | 1014.3 |
| 20260906023048 | 80 | 104 | 4.0 | 7.0 | 0.00 | 0.00 | 0.00 | 77 | 1014.3 |
| 20260906022547 | 80 | 103 | 4.0 | 7.0 | 0.00 | 0.00 | 0.00 | 76 | 1014.2 |
| 20260906021548 | 80 | 102 | 2.0 | 5.0 | 0.00 | 0.00 | 0.00 | 75 | 1014.2 |
| 20260906021047 | 81 | 101 | 1.0 | 4.0 | 0.00 | 0.00 | 0.00 | 74 | 1014.2 |
| 20260906020547 | 81 | 104 | 0.0 | 4.0 | 0.00 | 0.00 | 0.00 | 73 | 1014.3 |
| 20260906020048 | 81 | 104 | 0.0 | 1.0 | 0.00 | 0.00 | 0.00 | 73 | 1014.4 |
| 20260906015547 | 81 | 104 | 0.0 | 1.0 | 0.00 | 0.00 | 0.00 | 72 | 1014.4 |
| 20260906015047 | 82 | 105 | 0.0 | 1.0 | 0.00 | 0.00 | 0.00 | 72 | 1014.6 |
| 20260906014547 | 82 | 105 | 0.0 | 1.0 | 0.00 | 0.00 | 0.00 | 71 | 1014.5 |
| 20260906013547 | 82 | 106 | 0.0 | 1.0 | 0.00 | 0.00 | 0.00 | 71 | 1014.5 |
| 20260906013047 | 82 | 0 | 0.0 | 0.0 | 0.00 | 0.00 | 0.00 | 70 | 1014.3 |
| 20260906012546 | 82 | 108 | 0.0 | 3.0 | 0.00 | 0.00 | 0.00 | 70 | 1014.5 |
| 20260906012047 | 82 | 109 | 1.0 | 5.0 | 0.00 | 0.00 | 0.00 | 69 | 1014.4 |
| 20260906011546 | 83 | 111 | 1.0 | 5.0 | 0.00 | 0.00 | 0.00 | 69 | 1014.4 |
| 20260906011046 | 83 | 110 | 1.0 | 3.0 | 0.00 | 0.00 | 0.00 | 68 | 1014.5 |
| 20260906010546 | 83 | 108 | 1.0 | 3.0 | 0.00 | 0.00 | 0.00 | 67 | 1014.4 |
| 20260906010046 | 83 | 105 | 1.0 | 4.0 | 0.00 | 0.00 | 0.00 | 67 | 1014.4 |
| 20260906005547 | 83 | 103 | 1.0 | 4.0 | 0.00 | 0.00 | 0.00 | 66 | 1014.5 |
| 20260906005046 | 83 | 104 | 1.0 | 3.0 | 0.00 | 0.00 | 0.00 | 66 | 1014.5 |
| 20260906004546 | 84 | 101 | 1.0 | 4.0 | 0.00 | 0.00 | 0.00 | 65 | 1014.6 |
| 20260906004046 | 84 | 98 | 1.0 | 4.0 | 0.00 | 0.00 | 0.00 | 64 | 1014.7 |
| 20260906003546 | 84 | 92 | 1.0 | 5.0 | 0.00 | 0.00 | 0.00 | 63 | 1014.6 |
| 20260906003046 | 84 | 92 | 1.0 | 5.0 | 0.00 | 0.00 | 0.00 | 62 | 1014.6 |
| 20260906002545 | 85 | 103 | 1.0 | 6.0 | 0.00 | 0.00 | 0.00 | 61 | 1014.5 |
| 20260906002046 | 85 | 99 | 1.0 | 6.0 | 0.00 | 0.00 | 0.00 | 61 | 1014.3 |
| 20260906001545 | 85 | 90 | 1.0 | 5.0 | 0.00 | 0.00 | 0.00 | 60 | 1014.2 |
| 20260906001045 | 86 | 89 | 2.0 | 6.0 | 0.00 | 0.00 | 0.00 | 60 | 1014.1 |
| 20260906000546 | 86 | 90 | 1.0 | 7.0 | 0.00 | 0.00 | 0.00 | 59 | 1014.0 |
| 20260906000045 | 86 | 93 | 1.0 | 7.0 | 0.00 | 0.00 | 0.00 | 58 | 1014.2 |
| 20260905235546 | 87 | 93 | 1.0 | 6.0 | 0.00 | 0.00 | 0.00 | 57 | 1014.3 |
| 20260905235046 | 87 | 96 | 1.0 | 8.0 | 0.00 | 0.00 | 0.00 | 57 | 1014.2 |
| 20260905234545 | 88 | 94 | 1.0 | 8.0 | 0.00 | 0.00 | 0.00 | 56 | 1014.1 |
| 20260905234045 | 88 | 91 | 1.0 | 5.0 | 0.00 | 0.00 | 0.00 | 56 | 1014.2 |
| 20260905233046 | 88 | 96 | 2.0 | 8.0 | 0.00 | 0.00 | 0.00 | 54 | 1014.1 |
| 20260905232545 | 89 | 94 | 3.0 | 8.0 | 0.00 | 0.00 | 0.00 | 54 | 1014.0 |
| 20260905232045 | 89 | 91 | 3.0 | 10.0 | 0.00 | 0.00 | 0.00 | 53 | 1013.9 |
| 20260905231544 | 89 | 91 | 4.0 | 10.0 | 0.00 | 0.00 | 0.00 | 53 | 1013.8 |
| 20260905231045 | 90 | 89 | 3.0 | 8.0 | 0.00 | 0.00 | 0.00 | 52 | 1013.8 |
| 20260905230544 | 90 | 90 | 3.0 | 8.0 | 0.00 | 0.00 | 0.00 | 52 | 1013.7 |
| 20260905230044 | 90 | 95 | 2.0 | 14.0 | 0.00 | 0.00 | 0.00 | 53 | 1013.7 |
| 20260905225545 | 89 | 96 | 4.0 | 14.0 | 0.00 | 0.00 | 0.00 | 52 | 1013.6 |
| 20260905225045 | 90 | 97 | 5.0 | 14.0 | 0.00 | 0.00 | 0.00 | 52 | 1013.5 |
| 20260905224544 | 90 | 99 | 6.0 | 15.0 | 0.00 | 0.00 | 0.00 | 50 | 1013.5 |
| 20260905224044 | 90 | 100 | 8.0 | 15.0 | 0.00 | 0.00 | 0.00 | 50 | 1013.5 |
| 20260905223544 | 90 | 97 | 6.0 | 15.0 | 0.00 | 0.00 | 0.00 | 51 | 1013.4 |
| 20260905223044 | 90 | 95 | 6.0 | 15.0 | 0.00 | 0.00 | 0.00 | 51 | 1013.3 |
| 20260905222544 | 90 | 96 | 6.0 | 15.0 | 0.00 | 0.00 | 0.00 | 52 | 1013.2 |
| 20260905222044 | 90 | 94 | 5.0 | 12.0 | 0.00 | 0.00 | 0.00 | 52 | 1013.3 |
| 20260905221543 | 90 | 94 | 4.0 | 11.0 | 0.00 | 0.00 | 0.00 | 53 | 1013.3 |
| 20260905220544 | 90 | 90 | 4.0 | 15.0 | 0.00 | 0.00 | 0.00 | 54 | 1013.3 |
| 20260905215543 | 91 | 93 | 4.0 | 18.0 | 0.00 | 0.00 | 0.00 | 53 | 1013.4 |
| 20260905215043 | 91 | 90 | 3.0 | 11.0 | 0.00 | 0.00 | 0.00 | 54 | 1013.5 |
| 20260905214543 | 91 | 91 | 4.0 | 11.0 | 0.00 | 0.00 | 0.00 | 53 | 1013.5 |
| 20260905214043 | 91 | 90 | 4.0 | 11.0 | 0.00 | 0.00 | 0.00 | 52 | 1013.6 |
| 20260905213543 | 90 | 86 | 4.0 | 11.0 | 0.00 | 0.00 | 0.00 | 52 | 1013.8 |
| 20260905213043 | 90 | 81 | 3.0 | 11.0 | 0.00 | 0.00 | 0.00 | 52 | 1013.9 |
| 20260905211543 | 89 | 69 | 2.0 | 7.0 | 0.00 | 0.00 | 0.00 | 52 | 1014.3 |
| 20260905211043 | 89 | 68 | 3.0 | 7.0 | 0.00 | 0.00 | 0.00 | 52 | 1014.3 |
| 20260905210543 | 90 | 74 | 3.0 | 12.0 | 0.00 | 0.00 | 0.00 | 51 | 1014.4 |
| 20260905210043 | 90 | 83 | 3.0 | 14.0 | 0.00 | 0.00 | 0.00 | 50 | 1014.5 |
| 20260905205543 | 91 | 88 | 4.0 | 14.0 | 0.00 | 0.00 | 0.00 | 50 | 1014.5 |
| 20260905205042 | 91 | 90 | 4.0 | 13.0 | 0.00 | 0.00 | 0.00 | 50 | 1014.5 |
| 20260905204543 | 91 | 92 | 4.0 | 13.0 | 0.00 | 0.00 | 0.00 | 50 | 1014.6 |
| 20260905204042 | 90 | 92 | 4.0 | 13.0 | 0.00 | 0.00 | 0.00 | 51 | 1014.6 |
| 20260905203542 | 90 | 90 | 4.0 | 13.0 | 0.00 | 0.00 | 0.00 | 52 | 1014.6 |
| 20260905202542 | 88 | 92 | 3.0 | 13.0 | 0.00 | 0.00 | 0.00 | 55 | 1014.8 |